EW7507 Weather Reports


time (UTC)temp
F
wind
direction
speed
knots
gust
knots
rain 1hr
in
rain 24hr
in
rain mn
in
humidity
%
barometer
mb
20260509045300 62 257 0.0 1.7 0.00 0.00 0.00 43 971.3
20260509044800 62 257 0.0 1.7 0.00 0.00 0.00 42 971.2
20260509044259 62 257 0.0 0.9 0.00 0.00 0.00 41 971.2
20260509043802 63 257 0.0 0.9 0.00 0.00 0.00 40 971.2
20260509043306 64 257 0.0 1.7 0.00 0.00 0.00 37 971.2
20260509043259 63 257 0.0 1.7 0.00 0.00 0.00 38 971.1
20260509042259 64 255 0.0 0.9 0.00 0.00 0.00 36 971.1
20260509041800 64 268 0.0 0.9 0.00 0.00 0.00 36 971.0
20260509041258 64 189 0.0 0.9 0.00 0.00 0.00 32 970.9
20260509040800 64 175 0.0 0.0 0.00 0.00 0.00 30 970.9
20260509040259 64 175 0.0 0.9 0.00 0.00 0.00 30 970.8
20260509035800 65 175 0.0 2.6 0.00 0.00 0.00 30 970.7
20260509035258 65 264 0.0 2.6 0.00 0.00 0.00 29 970.6
20260509034801 65 169 0.0 0.9 0.00 0.00 0.00 28 970.6
20260509034258 65 165 0.0 3.5 0.00 0.00 0.00 28 970.4
20260509033759 66 168 0.9 3.5 0.00 0.00 0.00 28 970.3
20260509033255 66 176 0.0 5.2 0.00 0.00 0.00 28 970.2
20260509032759 66 104 0.0 6.1 0.00 0.00 0.00 28 970.2
20260509032256 66 93 0.9 6.1 0.00 0.00 0.00 28 969.9
20260509031807 66 34 0.0 1.7 0.00 0.00 0.00 28 969.6
20260509031759 66 79 0.0 0.9 0.00 0.00 0.00 28 969.7
20260509030759 67 65 0.0 6.1 0.00 0.00 0.00 30 969.5
20260509030304 67 56 0.9 5.2 0.00 0.00 0.00 26 969.2
20260509030256 67 59 0.0 6.1 0.00 0.00 0.00 27 969.4
20260509025306 68 66 0.9 8.7 0.00 0.00 0.00 26 969.0
20260509025256 67 56 0.0 8.7 0.00 0.00 0.00 26 969.1
20260509024257 68 51 0.0 3.5 0.00 0.00 0.00 25 968.8
20260509023757 68 0 0.0 6.1 0.00 0.00 0.00 25 968.8
20260509023257 68 66 0.9 10.4 0.00 0.00 0.00 25 968.7
20260509022758 69 52 0.9 13.9 0.00 0.00 0.00 24 968.6
20260509022306 69 63 1.7 7.8 0.00 0.00 0.00 24 968.5
20260509022257 69 66 0.0 13.9 0.00 0.00 0.00 24 968.3
20260509021304 70 83 0.9 10.4 0.00 0.00 0.00 24 968.2
20260509021256 70 358 0.0 10.4 0.00 0.00 0.00 24 968.3
20260509020255 70 54 0.9 9.6 0.00 0.00 0.00 23 968.0
20260509015757 71 75 0.9 13.0 0.00 0.00 0.00 22 967.9
20260509015255 71 58 4.3 13.9 0.00 0.00 0.00 21 967.8
20260509014806 71 37 1.7 10.4 0.00 0.00 0.00 20 967.8
20260509014758 71 55 4.3 13.9 0.00 0.00 0.00 21 967.8
20260509013805 72 59 0.9 10.4 0.00 0.00 0.00 21 967.6
20260509013756 72 49 0.0 10.4 0.00 0.00 0.00 21 967.7
20260509012756 72 61 0.0 7.8 0.00 0.00 0.00 20 967.7
20260509012302 72 47 0.9 11.3 0.00 0.00 0.00 19 967.7
20260509012254 72 71 0.9 11.3 0.00 0.00 0.00 20 967.7
20260509011300 73 41 0.9 10.4 0.00 0.00 0.00 19 967.6
20260509011254 72 27 3.5 10.4 0.00 0.00 0.00 19 967.7
20260509010913 73 31 2.6 12.2 0.00 0.00 0.00 19 967.6
20260509005803 73 8 1.7 9.6 0.00 0.00 0.00 18 967.5
20260509005754 73 3 1.7 12.2 0.00 0.00 0.00 18 967.6
20260509004754 74 0 0.0 14.8 0.00 0.00 0.00 19 967.5
20260509004254 74 16 1.7 14.8 0.00 0.00 0.00 19 967.6
20260509003755 75 4 3.5 9.6 0.00 0.00 0.00 19 967.6
20260509003253 75 0 3.5 7.8 0.00 0.00 0.00 18 967.5
20260509002803 76 0 0.0 6.1 0.00 0.00 0.00 18 967.5
20260509002755 75 327 0.0 6.1 0.00 0.00 0.00 19 967.6
20260509001755 76 13 1.7 6.1 0.00 0.00 0.00 18 967.6
20260509001253 76 6 0.0 3.5 0.00 0.00 0.00 18 967.6
20260509000754 76 347 0.0 2.6 0.00 0.00 0.00 18 967.7
20260509000252 76 326 0.0 4.3 0.00 0.00 0.00 18 967.6
20260508235752 76 345 0.0 4.3 0.00 0.00 0.00 18 967.7
20260508235253 77 343 0.0 3.5 0.00 0.00 0.00 17 967.6
20260508234753 77 358 0.0 5.2 0.00 0.00 0.00 17 967.7
20260508234259 77 353 0.0 7.8 0.00 0.00 0.00 17 967.6
20260508234252 77 353 0.0 6.1 0.00 0.00 0.00 17 967.7
20260508233251 77 0 2.6 9.6 0.00 0.00 0.00 17 967.7
20260508232752 77 20 0.0 9.6 0.00 0.00 0.00 17 967.7
20260508232252 77 296 0.0 13.0 0.00 0.00 0.00 17 967.8
20260508231801 78 326 1.7 10.4 0.00 0.00 0.00 17 967.8
20260508231753 78 8 5.2 13.0 0.00 0.00 0.00 16 967.8
20260508230800 78 319 0.0 7.8 0.00 0.00 0.00 17 967.8
20260508230754 78 336 0.0 4.3 0.00 0.00 0.00 16 967.8
20260508225751 78 8 0.9 7.8 0.00 0.00 0.00 16 967.8
20260508225251 78 323 0.9 9.6 0.00 0.00 0.00 16 967.9
20260508224750 78 251 2.6 16.5 0.00 0.00 0.00 17 967.8
20260508224256 78 327 0.0 13.0 0.00 0.00 0.00 16 968.0
20260508224250 78 6 1.7 16.5 0.00 0.00 0.00 17 968.0
20260508223257 78 7 0.9 13.0 0.00 0.00 0.00 17 968.0
20260508223249 78 317 1.7 12.2 0.00 0.00 0.00 16 968.0
20260508222251 78 11 2.6 13.0 0.00 0.00 0.00 16 968.1
20260508221752 78 257 0.0 13.9 0.00 0.00 0.00 16 968.0
20260508221250 78 336 2.6 22.6 0.00 0.00 0.00 15 968.1
20260508220751 78 348 7.0 22.6 0.00 0.00 0.00 16 968.1
20260508220248 79 289 0.0 13.9 0.00 0.00 0.00 17 968.1
20260508215759 78 344 0.0 12.2 0.00 0.00 0.00 17 968.2
20260508215751 79 283 1.7 13.0 0.00 0.00 0.00 16 968.3
20260508214751 78 329 3.5 12.2 0.00 0.00 0.00 16 968.3
20260508214249 78 324 1.7 8.7 0.00 0.00 0.00 16 968.3
20260508213751 78 345 0.0 11.3 0.00 0.00 0.00 16 968.5
20260508213249 78 345 0.9 12.2 0.00 0.00 0.00 16 968.5
20260508212750 78 326 5.2 12.2 0.00 0.00 0.00 16 968.6
20260508212248 78 13 0.0 11.3 0.00 0.00 0.00 18 968.5
20260508211749 78 11 0.0 13.9 0.00 0.00 0.00 16 968.5
20260508211247 78 338 7.8 13.9 0.00 0.00 0.00 17 968.6
20260508210749 78 7 0.0 12.2 0.00 0.00 0.00 16 968.6
20260508210249 78 16 0.9 14.8 0.00 0.00 0.00 17 968.7
20260508205749 78 320 3.5 16.5 0.00 0.00 0.00 16 968.6
20260508205247 78 302 9.6 16.5 0.00 0.00 0.00 17 968.6
20260508204749 77 1 3.5 10.4 0.00 0.00 0.00 16 968.6
20260508204252 77 0 5.2 13.9 0.00 0.00 0.00 17 968.6
20260508204246 77 353 1.7 13.9 0.00 0.00 0.00 16 968.7
20260508203247 77 354 0.0 13.9 0.00 0.00 0.00 17 968.6
20260508202749 77 348 2.6 12.2 0.00 0.00 0.00 17 968.6
20260508202246 78 330 4.3 12.2 0.00 0.00 0.00 17 968.7
20260508201749 77 283 1.7 11.3 0.00 0.00 0.00 17 968.7
20260508201247 77 336 0.0 13.9 0.00 0.00 0.00 19 968.7
20260508200748 77 337 2.6 13.9 0.00 0.00 0.00 17 968.8
20260508200246 76 20 4.3 13.9 0.00 0.00 0.00 18 968.7
20260508195747 76 319 4.3 18.2 0.00 0.00 0.00 18 968.9
20260508195247 76 293 7.8 19.1 0.00 0.00 0.00 17 968.9
20260508194754 76 333 6.1 15.6 0.00 0.00 0.00 18 968.8
20260508194746 76 338 2.6 19.1 0.00 0.00 0.00 18 968.7
20260508193755 76 312 4.3 15.6 0.00 0.00 0.00 19 968.8
20260508193747 76 0 2.6 15.6 0.00 0.00 0.00 19 968.7
20260508193412 76 343 0.0 19.1 0.00 0.00 0.00 19 968.8
20260508192245 76 289 7.0 19.1 0.00 0.00 0.00 19 968.9
20260508191754 75 295 5.2 15.6 0.00 0.00 0.00 20 969.0
20260508191746 76 254 1.7 13.0 0.00 0.00 0.00 19 969.0
20260508190747 75 316 5.2 16.5 0.00 0.00 0.00 19 969.0
20260508190244 75 320 2.6 16.5 0.00 0.00 0.00 20 969.1
20260508185747 75 300 2.6 17.4 0.00 0.00 0.00 21 969.1
20260508185244 74 266 4.3 17.4 0.00 0.00 0.00 20 969.2
20260508184746 74 329 7.8 14.8 0.00 0.00 0.00 21 969.2
20260508184244 74 317 7.8 15.6 0.00 0.00 0.00 20 969.3
20260508183754 74 285 10.4 18.2 0.00 0.00 0.00 20 969.5
20260508183745 74 321 10.4 18.2 0.00 0.00 0.00 21 969.4
20260508183409 73 321 7.0 17.4 0.00 0.00 0.00 21 969.4
20260508182245 73 319 7.8 17.4 0.00 0.00 0.00 21 969.5
20260508181745 73 312 5.2 15.6 0.00 0.00 0.00 21 969.5
20260508181245 73 0 8.7 15.6 0.00 0.00 0.00 22 969.6
20260508180752 73 313 5.2 16.5 0.00 0.00 0.00 22 969.6
20260508180745 73 0 3.5 14.8 0.00 0.00 0.00 22 969.6
20260508175752 72 333 6.1 13.9 0.00 0.00 0.00 22 969.7
20260508175744 72 338 3.5 16.5 0.00 0.00 0.00 23 969.7
20260508174745 72 319 2.6 16.5 0.00 0.00 0.00 23 969.8
20260508174242 72 321 6.1 16.5 0.00 0.00 0.00 22 969.8
20260508173745 72 296 1.7 13.0 0.00 0.00 0.00 22 969.8
20260508173243 72 350 3.5 13.9 0.00 0.00 0.00 23 969.9
20260508172742 72 326 3.5 15.6 0.00 0.00 0.00 24 969.8
20260508172243 71 0 7.8 15.6 0.00 0.00 0.00 23 969.9
20260508171742 71 330 7.0 14.8 0.00 0.00 0.00 24 969.9
20260508171243 71 302 7.0 14.8 0.00 0.00 0.00 24 969.9
20260508170743 70 254 7.8 13.9 0.00 0.00 0.00 25 969.9
20260508170243 69 333 6.1 20.0 0.00 0.00 0.00 25 969.9
20260508165743 69 310 8.7 20.0 0.00 0.00 0.00 25 969.9
20260508165249 69 276 3.5 11.3 0.00 0.00 0.00 30 969.9
20260508165242 70 319 11.3 16.5 0.00 0.00 0.00 28 969.9
20260508164241 69 331 3.5 10.4 0.00 0.00 0.00 30 969.9
20260508163744 68 266 3.5 13.0 0.00 0.00 0.00 32 970.0
20260508163240 67 292 8.7 14.8 0.00 0.00 0.00 32 970.0
20260508162743 67 303 9.6 14.8 0.00 0.00 0.00 32 970.1
20260508162248 67 326 6.1 12.2 0.00 0.00 0.00 33 970.0
20260508162241 67 293 8.7 13.9 0.00 0.00 0.00 32 970.1
20260508161240 66 266 5.2 11.3 0.00 0.00 0.00 36 970.1
20260508160743 66 0 6.1 11.3 0.00 0.00 0.00 36 970.1
20260508160240 66 310 7.0 10.4 0.00 0.00 0.00 36 970.1
20260508155740 65 282 5.2 9.6 0.00 0.00 0.00 36 970.1
20260508155241 65 293 4.3 10.4 0.00 0.00 0.00 38 970.1
20260508154749 64 329 7.0 10.4 0.00 0.00 0.00 38 970.1
20260508154741 64 329 4.3 10.4 0.00 0.00 0.00 38 970.0
20260508153741 64 302 6.1 10.4 0.00 0.00 0.00 40 970.0
20260508153239 63 292 5.2 8.7 0.00 0.00 0.00 42 970.1
20260508152751 63 274 6.1 10.4 0.00 0.00 0.00 43 970.3
20260508152743 63 283 5.2 10.4 0.00 0.00 0.00 42 970.2
20260508151741 62 266 4.3 9.6 0.00 0.00 0.00 46 970.4
20260508151238 62 264 5.2 10.4 0.00 0.00 0.00 47 970.4
20260508150740 60 259 5.2 10.4 0.00 0.00 0.00 50 970.4
20260508150239 59 314 5.2 6.1 0.00 0.00 0.00 54 970.4
20260508145741 58 254 0.9 1.7 0.00 0.00 0.00 59 970.4
20260508145238 57 254 0.9 1.7 0.00 0.00 0.00 61 970.6
20260508144748 55 254 1.7 3.5 0.00 0.00 0.00 63 970.4
20260508144741 56 254 0.9 2.6 0.00 0.00 0.00 63 970.4
20260508143739 54 254 1.7 3.5 0.00 0.00 0.00 65 970.6
20260508143238 53 261 0.9 3.5 0.00 0.00 0.00 68 970.6
20260508142740 52 261 1.7 3.5 0.00 0.00 0.00 69 970.6
20260508142238 51 261 0.9 2.6 0.00 0.00 0.00 72 970.7
20260508141748 50 259 0.9 2.6 0.00 0.00 0.00 74 970.6
20260508141741 50 261 0.9 2.6 0.00 0.00 0.00 73 970.6
20260508140739 49 259 1.7 3.5 0.00 0.00 0.00 76 970.6
20260508140237 49 259 1.7 3.5 0.00 0.00 0.00 78 970.6
20260508135739 48 259 1.7 2.6 0.00 0.00 0.00 80 970.6
20260508135237 48 259 1.7 2.6 0.00 0.00 0.00 81 970.6
20260508134738 47 259 0.9 2.6 0.00 0.00 0.00 81 970.6
20260508134236 47 259 0.9 2.6 0.00 0.00 0.00 81 970.7
20260508133747 46 259 0.0 0.9 0.00 0.00 0.00 82 970.6
20260508133739 46 259 0.0 0.9 0.00 0.00 0.00 82 970.7
20260508132738 46 259 0.0 0.0 0.00 0.00 0.00 82 970.6
20260508132237 46 259 0.0 0.9 0.00 0.00 0.00 82 970.6
20260508131739 45 259 0.0 0.9 0.00 0.00 0.00 83 970.6
20260508131236 45 259 0.0 0.0 0.00 0.00 0.00 84 970.4
20260508130745 44 259 0.0 0.0 0.00 0.00 0.00 84 970.4
20260508130738 44 259 0.0 0.0 0.00 0.00 0.00 84 970.4
20260508125738 44 259 0.0 0.0 0.00 0.00 0.00 84 970.6
20260508125236 44 259 0.0 0.9 0.00 0.00 0.00 84 970.6
20260508124737 44 259 0.0 0.9 0.00 0.00 0.00 84 970.4
20260508124236 44 259 0.0 1.7 0.00 0.00 0.00 84 970.6
20260508123736 44 259 0.0 1.7 0.00 0.00 0.00 84 970.6
20260508123235 44 259 0.9 1.7 0.00 0.00 0.00 84 970.6
20260508122737 44 259 0.9 2.6 0.00 0.00 0.00 84 970.6
20260508122234 44 259 0.9 3.5 0.00 0.00 0.00 84 970.6
20260508121735 44 259 0.9 3.5 0.00 0.00 0.00 84 970.6
20260508121235 44 258 1.7 4.3 0.00 0.00 0.00 84 970.6
20260508120743 43 266 2.6 5.2 0.00 0.00 0.00 85 970.6
20260508120735 44 292 2.6 4.3 0.00 0.00 0.00 85 970.6
20260508115736 43 268 1.7 5.2 0.00 0.00 0.00 86 970.6
20260508115234 43 257 3.5 5.2 0.00 0.00 0.00 85 970.7
20260508114736 43 245 1.7 2.6 0.00 0.00 0.00 85 970.7
20260508114234 43 245 1.7 2.6 0.00 0.00 0.00 85 970.6
20260508113734 43 245 1.7 3.5 0.00 0.00 0.00 85 970.6
20260508113234 43 248 0.0 3.5 0.00 0.00 0.00 85 970.7
20260508112735 43 269 0.9 4.3 0.00 0.00 0.00 85 970.7
20260508112234 43 279 0.0 5.2 0.00 0.00 0.00 85 970.7
20260508111735 43 275 0.9 5.2 0.00 0.00 0.00 85 970.8
20260508111233 43 259 0.9 4.3 0.00 0.00 0.00 85 970.7
20260508110735 43 245 0.0 2.6 0.00 0.00 0.00 84 970.8
20260508110239 44 252 1.7 2.6 0.00 0.00 0.00 84 970.8
20260508110232 44 252 0.9 2.6 0.00 0.00 0.00 84 970.8
20260508105232 44 254 1.7 2.6 0.00 0.00 0.00 84 970.8
20260508104735 44 254 1.7 2.6 0.00 0.00 0.00 83 970.8
20260508104233 44 254 0.0 2.6 0.00 0.00 0.00 83 970.9
20260508103734 44 254 0.0 2.6 0.00 0.00 0.00 83 970.9
20260508103232 45 254 0.0 2.6 0.00 0.00 0.00 82 970.8
20260508102734 45 254 0.0 0.0 0.00 0.00 0.00 82 970.8
20260508102232 45 254 0.0 1.7 0.00 0.00 0.00 81 970.8
20260508101732 45 254 0.0 2.6 0.00 0.00 0.00 81 970.8
20260508101232 46 254 0.9 2.6 0.00 0.00 0.00 80 970.8
20260508100733 46 254 0.0 3.5 0.00 0.00 0.00 80 970.7
20260508100233 46 254 0.0 5.2 0.00 0.00 0.00 80 970.7
20260508095733 46 274 0.0 5.2 0.00 0.00 0.00 79 970.7
20260508095238 47 240 0.9 3.5 0.00 0.00 0.00 79 970.8
20260508095231 47 262 0.0 5.2 0.00 0.00 0.00 79 970.8
20260508094230 47 228 0.9 2.6 0.00 0.00 0.00 78 970.8
20260508093731 47 261 0.0 2.6 0.00 0.00 0.00 78 970.8
20260508093230 47 261 0.0 5.2 0.00 0.00 0.00 77 970.8
20260508092733 47 259 0.0 5.2 0.00 0.00 0.00 78 970.9
20260508092238 48 255 0.0 3.5 0.00 0.00 0.00 78 970.9
20260508092231 48 262 0.0 3.5 0.00 0.00 0.00 78 970.9
20260508091236 47 276 0.9 5.2 0.00 0.00 0.00 78 971.1
20260508091231 48 268 0.0 5.2 0.00 0.00 0.00 78 971.0
20260508090858 47 281 0.0 2.6 0.00 0.00 0.00 77 971.0
20260508085732 47 268 0.0 0.0 0.00 0.00 0.00 77 971.0
20260508085230 47 266 0.0 4.3 0.00 0.00 0.00 77 971.1
20260508084730 47 269 0.0 5.2 0.00 0.00 0.00 77 971.1
20260508084231 47 281 0.0 5.2 0.00 0.00 0.00 78 971.1
20260508083731 47 255 0.0 5.2 0.00 0.00 0.00 77 971.1
20260508083231 47 275 0.0 6.1 0.00 0.00 0.00 78 971.0
20260508082739 47 283 0.9 1.7 0.00 0.00 0.00 77 971.2
20260508082731 47 293 0.9 6.1 0.00 0.00 0.00 77 971.1
20260508082354 47 283 0.9 2.6 0.00 0.00 0.00 77 971.1
20260508081236 47 302 0.0 5.2 0.00 0.00 0.00 76 971.2
20260508081229 47 283 0.0 4.3 0.00 0.00 0.00 76 971.1
20260508080228 47 306 0.0 5.2 0.00 0.00 0.00 76 971.1
20260508075731 48 299 1.7 5.2 0.00 0.00 0.00 75 971.1
20260508075228 48 290 0.0 4.3 0.00 0.00 0.00 75 971.1
20260508074738 48 272 0.0 7.8 0.00 0.00 0.00 74 971.2
20260508074731 48 293 0.0 4.3 0.00 0.00 0.00 75 971.1
20260508073736 49 300 0.0 6.1 0.00 0.00 0.00 74 971.1
20260508073729 49 276 0.9 7.8 0.00 0.00 0.00 74 971.2
20260508072729 49 290 0.0 5.2 0.00 0.00 0.00 74 971.1
20260508072228 49 275 0.0 0.9 0.00 0.00 0.00 74 971.2
20260508071730 49 224 0.0 0.0 0.00 0.00 0.00 74 971.2
20260508071228 49 224 0.0 0.0 0.00 0.00 0.00 74 971.2
20260508070729 50 224 0.0 0.9 0.00 0.00 0.00 73 971.4
20260508070228 50 224 0.0 1.7 0.00 0.00 0.00 73 971.4
20260508065729 50 224 0.0 1.7 0.00 0.00 0.00 73 971.4
20260508065227 50 224 0.0 2.6 0.00 0.00 0.00 72 971.4
20260508064728 50 224 0.0 2.6 0.00 0.00 0.00 71 971.4
20260508064235 51 223 0.0 0.0 0.00 0.00 0.00 71 971.4
20260508064227 50 223 0.0 0.9 0.00 0.00 0.00 71 971.4
20260508063226 51 223 0.0 0.0 0.00 0.00 0.00 70 971.4
20260508062729 51 223 0.0 0.9 0.00 0.00 0.00 70 971.4
20260508062233 52 223 0.0 0.0 0.00 0.00 0.00 69 971.4
20260508062226 51 223 0.0 0.9 0.00 0.00 0.00 70 971.5
20260508061227 52 223 0.0 0.0 0.00 0.00 0.00 68 971.5
20260508060728 53 223 0.0 0.0 0.00 0.00 0.00 67 971.5
20260508060232 53 223 0.0 0.0 0.00 0.00 0.00 67 971.3
20260508060226 53 223 0.0 0.0 0.00 0.00 0.00 67 971.4
20260508055226 53 223 0.0 0.0 0.00 0.00 0.00 66 971.4
20260508054726 53 223 0.0 0.0 0.00 0.00 0.00 66 971.3
20260508054226 53 223 0.0 0.0 0.00 0.00 0.00 66 971.3
20260508053726 54 223 0.0 0.0 0.00 0.00 0.00 65 971.2
20260508053225 54 223 0.0 0.9 0.00 0.00 0.00 65 971.3
20260508052727 54 223 0.0 0.9 0.00 0.00 0.00 65 971.3
20260508052232 55 223 0.0 0.0 0.00 0.00 0.00 64 971.4
20260508052224 54 223 0.0 0.0 0.00 0.00 0.00 65 971.4
20260508051225 55 223 0.0 0.0 0.00 0.00 0.00 64 971.3
20260508050727 55 223 0.0 0.9 0.00 0.00 0.00 64 971.5
20260508050226 55 223 0.0 0.9 0.00 0.00 0.00 63 971.4
20260508045727 55 223 0.0 4.3 0.00 0.00 0.00 63 971.4